Location: Azenweiler
(47.8027°N, 9.4096°E)
Time: 03:13:07
(UTC+00:00)

Cosmos 1626 Rocket - Pass Details

Date: 20 March 2026
Orbit: 596 x 624 km, 82.5° (Epoch: 13 April)

Event Time Altitude Azimuth Distance (km) Brightness Sun altitude
Rises 02:42:38 0° 358° (N) 2,892 7.4 -26.8°
Reaches altitude 10° 02:45:04 10° 9° (N) 1,977 6.6 -26.4°
Maximum altitude 02:49:00 32° 72° (ENE) 1,061 5.3 -25.9°
Drops below altitude 10° 02:52:52 10° 136° (SE) 1,947 6.2 -25.3°
Sets 02:55:15 0° 147° (SSE) 2,841 7.0 -25.0°
